Location: Burbank
(38.7788°N, 114.0429°W)
Time: 01:39:31
(UTC+00:00)

Tiros 1 despin weight - Pass Details

Date: 10 May 2026
Orbit: 554 x 591 km, 48.2° (Epoch: 6 June)

Event Time Altitude Azimuth Distance (km) Brightness Sun altitude
Rises 13:29:05 0° 213° (SSW) 2,740 ? 10.3°
Reaches altitude 10° 13:31:28 10° 205° (SSW) 1,842 ? 10.8°
Maximum altitude 13:35:19 35° 139° (SE) 904 ? 11.5°
Drops below altitude 10° 13:39:09 10° 73° (ENE) 1,836 ? 12.2°
Sets 13:41:31 0° 64° (ENE) 2,731 ? 12.7°
